QPF
0.00 0.00 0.00 0.00 0.00 0.00 0.00 0.00 0.00 0.00 0.00 0.00 0.00 0.00 0.00 0.01 0.02 0.02 0.02 0.03 0.05 0.06 0.07 0.09 0.13 0.19 0.21 0.29 0.48 0.58 0.71 0.77 0.75 0.77 0.78 0.67 0.59 0.54 0.48 0.41 0.36 0.30 0.26 0.21
0.00 0.00 0.00 0.00 0.00 0.00 0.00 0.00 0.00 0.00 0.00 0.00 0.00 0.00 0.01 0.01 0.02 0.02 0.03 0.05 0.07 0.09 0.10 0.09 0.09 0.11 0.11 0.16 0.26 0.31 0.36 0.47 0.61 0.62 0.52 0.44 0.44 0.42 0.44 0.42 0.32 0.26 0.20 0.16
0.00 0.00 0.00 0.00 0.00 0.00 0.00 0.00 0.00 0.00 0.00 0.00 0.00 0.01 0.01 0.02 0.02 0.02 0.03 0.05 0.06 0.08 0.09 0.09 0.09 0.09 0.07 0.05 0.06 0.08 0.08 0.12 0.17 0.17 0.17 0.16 0.19 0.20 0.22 0.24 0.24 0.22 0.17 0.12
0.00 0.00 0.00 0.00 0.00 0.00 0.00 0.00 0.00 0.00 0.00 0.00 0.00 0.01 0.01 0.01 0.01 0.02 0.03 0.04 0.06 0.06 0.07 0.07 0.06 0.06 0.05 0.04 0.04 0.04 0.04 0.05 0.06 0.06 0.07 0.08 0.09 0.11 0.11 0.11 0.12 0.14 0.15 0.12
0.01 0.00 0.00 0.00 0.00 0.00 0.00 0.00 0.00 0.00 0.00 0.00 0.00 0.01 0.01 0.01 0.01 0.03 0.04 0.05 0.05 0.05 0.05 0.04 0.04 0.04 0.04 0.03 0.04 0.04 0.05 0.05 0.06 0.07 0.07 0.08 0.10 0.11 0.12 0.12 0.14 0.15 0.15 0.14
0.01 0.01 0.01 0.00 0.00 0.00 0.00 0.00 0.00 0.00 0.00 0.00 0.00 0.00 0.01 0.01 0.01 0.02 0.03 0.04 0.04 0.04 0.04 0.04 0.04 0.04 0.04 0.03 0.04 0.05 0.06 0.06 0.07 0.08 0.08 0.10 0.10 0.10 0.11 0.11 0.12 0.13 0.13 0.13
0.01 0.01 0.01 0.00 0.00 0.00 0.01 0.00 0.00 0.00 0.00 0.00 0.01 0.01 0.01 0.01 0.01 0.01 0.02 0.03 0.04 0.03 0.03 0.02 0.02 0.02 0.02 0.02 0.02 0.03 0.03 0.03 0.04 0.06 0.06 0.07 0.08 0.09 0.08 0.07 0.06 0.06 0.07 0.08
0.00 0.01 0.01 0.00 0.00 0.00 0.01 0.01 0.02 0.01 0.01 0.01 0.01 0.01 0.01 0.01 0.01 0.01 0.02 0.02 0.02 0.02 0.01 0.01 0.00 0.00 0.00 0.00 0.00 0.00 0.00 0.01 0.01 0.01 0.01 0.02 0.02 0.03 0.03 0.03 0.02 0.02 0.03 0.03
0.00 0.00 0.00 0.01 0.01 0.01 0.02 0.02 0.02 0.02 0.02 0.02 0.02 0.02 0.02 0.01 0.01 0.01 0.02 0.01 0.01 0.01 0.00 0.00 0.00 0.00 0.00 0.00 0.00 0.00 0.00 0.00 0.00 0.00 0.00 0.00 0.00 0.00 0.00 0.01 0.01 0.01 0.01 0.01
0.00 0.00 0.00 0.00 0.01 0.01 0.01 0.01 0.02 0.02 0.03 0.02 0.02 0.02 0.02 0.01 0.01 0.01 0.01 0.01 0.00 0.00 0.00 0.00 0.00 0.00 0.00 0.00 0.00 0.00 0.00 0.00 0.00 0.00 0.00 0.00 0.00 0.00 0.00 0.00 0.00 0.00 0.00 0.00
0.00 0.00 0.00 0.00 0.00 0.00 0.01 0.01 0.02 0.02 0.02 0.02 0.02 0.02 0.02 0.01 0.01 0.01 0.00 0.00 0.00 0.00 0.00 0.00 0.00 0.00 0.00 0.00 0.00 0.00 0.00 0.00 0.00 0.00 0.00 0.00 0.00 0.00 0.00 0.00 0.00 0.00 0.00 0.00
0.00 0.00 0.00 0.00 0.00 0.00 0.01 0.01 0.01 0.02 0.02 0.03 0.02 0.02 0.02 0.01 0.00 0.00 0.00 0.00 0.00 0.00 0.00 0.00 0.00 0.00 0.00 0.00 0.00 0.00 0.00 0.00 0.00 0.00 0.00 0.00 0.00 0.00 0.00 0.00 0.00 0.00 0.00 0.00
0.00 0.00 0.00 0.00 0.00 0.01 0.01 0.01 0.01 0.02 0.02 0.02 0.01 0.00 0.00 0.00 0.00 0.00 0.00 0.00 0.00 0.00 0.00 0.00 0.00 0.00 0.00 0.00 0.00 0.00 0.00 0.00 0.00 0.00 0.00 0.00 0.00 0.00 0.00 0.00 0.00 0.00 0.00 0.00
0.00 0.00 0.00 0.00 0.00 0.01 0.01 0.01 0.01 0.01 0.01 0.00 0.00 0.00 0.00 0.00 0.00 0.00 0.00 0.00 0.00 0.00 0.00 0.00 0.00 0.00 0.00 0.00 0.00 0.00 0.00 0.00 0.00 0.00 0.00 0.00 0.00 0.00 0.00 0.00 0.00 0.00 0.00 0.00
0.00 0.00 0.00 0.00 0.00 0.01 0.01 0.01 0.01 0.00 0.00 0.00 0.00 0.00 0.00 0.00 0.00 0.00 0.00 0.00 0.00 0.00 0.00 0.00 0.00 0.00 0.00 0.00 0.00 0.00 0.00 0.00 0.00 0.00 0.00 0.00 0.00 0.00 0.00 0.00 0.00 0.00 0.00 0.00
0.00 0.00 0.00 0.00 0.00 0.01 0.00 0.00 0.00 0.00 0.00 0.00 0.00 0.00 0.00 0.00 0.00 0.00 0.00 0.00 0.00 0.00 0.00 0.00 0.00 0.00 0.00 0.00 0.00 0.00 0.00 0.00 0.00 0.00 0.00 0.00 0.00 0.00 0.00 0.00 0.00 0.00 0.00 0.00
0.01 0.00 0.00 0.00 0.00 0.01 0.00 0.00 0.00 0.00 0.00 0.00 0.00 0.00 0.00 0.00 0.00 0.00 0.00 0.00 0.00 0.00 0.00 0.00 0.00 0.00 0.00 0.00 0.00 0.00 0.00 0.00 0.00 0.00 0.00 0.00 0.00 0.00 0.00 0.00 0.00 0.00 0.00 0.00
0.01 0.00 0.00 0.00 0.00 0.00 0.00 0.00 0.00 0.00 0.00 0.00 0.00 0.00 0.00 0.00 0.00 0.00 0.00 0.00 0.00 0.00 0.00 0.00 0.00 0.00 0.00 0.00 0.00 0.00 0.00 0.00 0.00 0.00 0.00 0.00 0.01 0.01 0.01 0.01 0.01 0.01 0.00 0.00
0.01 0.00 0.00 0.00 0.00 0.00 0.00 0.00 0.00 0.00 0.00 0.00 0.00 0.00 0.00 0.00 0.00 0.00 0.00 0.00 0.00 0.00 0.00 0.00 0.00 0.00 0.00 0.00 0.00 0.00 0.00 0.00 0.00 0.00 0.01 0.01 0.02 0.02 0.02 0.02 0.02 0.01 0.01 0.01
0.00 0.00 0.00 0.00 0.00 0.00 0.00 0.00 0.00 0.00 0.00 0.00 0.00 0.00 0.00 0.00 0.00 0.00 0.00 0.00 0.00 0.00 0.00 0.00 0.00 0.00 0.00 0.00 0.00 0.00 0.00 0.00 0.01 0.01 0.02 0.02 0.03 0.04 0.04 0.04 0.04 0.04 0.03 0.02
0.00 0.00 0.00 0.00 0.00 0.00 0.00 0.00 0.00 0.00 0.00 0.00 0.00 0.00 0.00 0.00 0.00 0.00 0.00 0.00 0.00 0.00 0.00 0.00 0.00 0.00 0.00 0.00 0.01 0.01 0.01 0.01 0.01 0.02 0.02 0.03 0.03 0.04 0.05 0.05 0.05 0.05 0.05 0.03
0.00 0.00 0.00 0.00 0.00 0.00 0.00 0.00 0.00 0.00 0.00 0.00 0.00 0.00 0.00 0.00 0.00 0.00 0.00 0.00 0.00 0.00 0.00 0.00 0.00 0.00 0.00 0.00 0.01 0.02 0.02 0.02 0.02 0.03 0.03 0.03 0.03 0.05 0.06 0.07 0.06 0.06 0.06 0.05
0.00 0.00 0.00 0.00 0.00 0.00 0.00 0.00 0.00 0.00 0.00 0.00 0.00 0.00 0.00 0.00 0.00 0.00 0.00 0.00 0.00 0.00 0.00 0.00 0.00 0.00 0.00 0.01 0.01 0.02 0.03 0.03 0.03 0.03 0.04 0.04 0.04 0.05 0.07 0.08 0.08 0.06 0.05 0.04
0.00 0.00 0.00 0.00 0.00 0.00 0.00 0.00 0.00 0.00 0.00 0.00 0.00 0.00 0.00 0.00 0.00 0.00 0.00 0.00 0.00 0.00 0.00 0.00 0.00 0.01 0.01 0.01 0.01 0.03 0.03 0.03 0.04 0.05 0.04 0.04 0.04 0.05 0.06 0.07 0.06 0.05 0.05 0.04
0.00 0.00 0.00 0.00 0.00 0.00 0.00 0.00 0.00 0.00 0.00 0.00 0.00 0.00 0.00 0.00 0.00 0.00 0.00 0.00 0.00 0.00 0.00 0.00 0.01 0.01 0.02 0.02 0.02 0.03 0.03 0.05 0.06 0.06 0.05 0.05 0.05 0.06 0.07 0.06 0.05 0.04 0.03 0.03
0.00 0.00 0.00 0.00 0.00 0.00 0.00 0.00 0.00 0.00 0.00 0.00 0.00 0.00 0.00 0.00 0.00 0.00 0.00 0.00 0.00 0.00 0.00 0.00 0.01 0.02 0.02 0.02 0.02 0.03 0.04 0.06 0.07 0.06 0.06 0.06 0.06 0.07 0.07 0.05 0.05 0.03 0.02 0.01
MSLP
1009.95 1010.67 1011.16 1011.43 1011.52 1011.51 1011.51 1011.58 1011.79 1012.15 1012.61 1013.12 1013.59 1013.96 1014.18 1014.22 1014.10 1013.86 1013.54 1013.22 1012.93 1012.70 1012.53 1012.42 1012.33 1012.22 1012.08 1011.87 1011.59 1011.24 1010.84 1010.40 1009.96 1009.53 1009.16 1008.85 1008.63 1008.51 1008.51 1008.61 1008.83 1009.13 1009.50 1009.91
1010.22 1010.80 1011.15 1011.30 1011.31 1011.29 1011.33 1011.51 1011.87 1012.40 1013.05 1013.71 1014.32 1014.77 1015.03 1015.07 1014.91 1014.62 1014.25 1013.86 1013.52 1013.24 1013.02 1012.85 1012.70 1012.52 1012.31 1012.02 1011.68 1011.29 1010.87 1010.45 1010.05 1009.68 1009.37 1009.12 1008.93 1008.81 1008.78 1008.82 1008.95 1009.16 1009.43 1009.76
1010.33 1010.73 1010.93 1010.97 1010.93 1010.92 1011.04 1011.35 1011.87 1012.57 1013.36 1014.14 1014.82 1015.31 1015.56 1015.57 1015.36 1015.01 1014.60 1014.19 1013.84 1013.56 1013.35 1013.18 1013.02 1012.83 1012.58 1012.26 1011.89 1011.47 1011.06 1010.66 1010.30 1009.99 1009.74 1009.54 1009.39 1009.28 1009.22 1009.20 1009.23 1009.33 1009.48 1009.70
1010.33 1010.55 1010.60 1010.55 1010.50 1010.54 1010.76 1011.22 1011.90 1012.74 1013.65 1014.51 1015.22 1015.69 1015.89 1015.83 1015.55 1015.15 1014.71 1014.30 1013.96 1013.72 1013.56 1013.44 1013.31 1013.14 1012.89 1012.56 1012.16 1011.74 1011.32 1010.94 1010.61 1010.36 1010.16 1010.01 1009.90 1009.80 1009.71 1009.63 1009.58 1009.56 1009.60 1009.70
1010.33 1010.36 1010.29 1010.18 1010.14 1010.27 1010.62 1011.24 1012.07 1013.04 1014.04 1014.93 1015.62 1016.03 1016.15 1015.99 1015.63 1015.16 1014.69 1014.28 1013.98 1013.80 1013.70 1013.65 1013.57 1013.42 1013.19 1012.85 1012.45 1012.01 1011.59 1011.21 1010.91 1010.68 1010.53 1010.42 1010.33 1010.24 1010.14 1010.02 1009.91 1009.80 1009.74 1009.72
1010.41 1010.28 1010.11 1009.98 1009.99 1010.22 1010.72 1011.48 1012.45 1013.52 1014.57 1015.46 1016.09 1016.41 1016.42 1016.14 1015.69 1015.16 1014.66 1014.25 1013.98 1013.85 1013.81 1013.81 1013.78 1013.66 1013.44 1013.10 1012.68 1012.22 1011.78 1011.39 1011.09 1010.89 1010.76 1010.68 1010.62 1010.55 1010.45 1010.31 1010.16 1010.00 1009.85 1009.76
1010.64 1010.39 1010.16 1010.04 1010.12 1010.46 1011.08 1011.97 1013.05 1014.18 1015.23 1016.08 1016.64 1016.85 1016.74 1016.35 1015.80 1015.21 1014.67 1014.25 1014.00 1013.90 1013.90 1013.93 1013.93 1013.82 1013.60 1013.25 1012.81 1012.33 1011.86 1011.45 1011.14 1010.94 1010.82 1010.76 1010.72 1010.67 1010.58 1010.46 1010.29 1010.10 1009.92 1009.78
1011.03 1010.71 1010.47 1010.38 1010.53 1010.96 1011.69 1012.67 1013.79 1014.93 1015.96 1016.74 1017.19 1017.30 1017.07 1016.59 1015.96 1015.31 1014.74 1014.31 1014.06 1013.96 1013.97 1014.01 1014.00 1013.89 1013.65 1013.28 1012.81 1012.30 1011.81 1011.38 1011.05 1010.83 1010.71 1010.66 1010.63 1010.60 1010.54 1010.43 1010.27 1010.10 1009.92 1009.76
1011.53 1011.20 1010.98 1010.95 1011.17 1011.68 1012.47 1013.47 1014.59 1015.69 1016.63 1017.32 1017.67 1017.67 1017.35 1016.80 1016.12 1015.44 1014.85 1014.41 1014.15 1014.04 1014.03 1014.04 1014.00 1013.86 1013.59 1013.20 1012.71 1012.18 1011.66 1011.21 1010.86 1010.62 1010.48 1010.41 1010.38 1010.36 1010.31 1010.22 1010.10 1009.95 1009.80 1009.67
1012.06 1011.80 1011.64 1011.68 1011.97 1012.52 1013.31 1014.28 1015.33 1016.33 1017.16 1017.73 1017.97 1017.89 1017.51 1016.93 1016.24 1015.56 1014.97 1014.53 1014.25 1014.11 1014.06 1014.02 1013.94 1013.76 1013.46 1013.04 1012.53 1011.99 1011.46 1010.99 1010.61 1010.34 1010.16 1010.06 1010.01 1009.97 1009.92 1009.86 1009.76 1009.66 1009.55 1009.46
1012.56 1012.40 1012.36 1012.48 1012.81 1013.37 1014.12 1015.00 1015.92 1016.77 1017.46 1017.89 1018.04 1017.89 1017.50 1016.92 1016.27 1015.63 1015.07 1014.64 1014.35 1014.17 1014.07 1013.97 1013.83 1013.60 1013.27 1012.83 1012.32 1011.77 1011.23 1010.75 1010.34 1010.03 1009.80 1009.65 1009.54 1009.47 1009.40 1009.33 1009.26 1009.19 1009.13 1009.09
1012.96 1012.96 1013.05 1013.27 1013.64 1014.17 1014.83 1015.58 1016.33 1017.00 1017.52 1017.82 1017.88 1017.69 1017.31 1016.79 1016.21 1015.64 1015.14 1014.73 1014.44 1014.23 1014.07 1013.90 1013.70 1013.42 1013.05 1012.60 1012.09 1011.55 1011.02 1010.52 1010.08 1009.72 1009.43 1009.20 1009.01 1008.87 1008.76 1008.67 1008.61 1008.56 1008.55 1008.56
1013.27 1013.46 1013.69 1014.00 1014.40 1014.88 1015.44 1016.02 1016.58 1017.05 1017.39 1017.56 1017.55 1017.35 1017.01 1016.57 1016.08 1015.61 1015.18 1014.81 1014.52 1014.27 1014.05 1013.83 1013.56 1013.22 1012.83 1012.37 1011.86 1011.33 1010.80 1010.29 1009.82 1009.40 1009.03 1008.71 1008.44 1008.21 1008.04 1007.91 1007.84 1007.81 1007.83 1007.89
1013.54 1013.91 1014.28 1014.67 1015.08 1015.51 1015.94 1016.34 1016.70 1016.98 1017.16 1017.21 1017.13 1016.94 1016.66 1016.31 1015.93 1015.56 1015.21 1014.88 1014.59 1014.31 1014.03 1013.73 1013.39 1013.01 1012.57 1012.10 1011.60 1011.08 1010.55 1010.03 1009.52 1009.04 1008.59 1008.18 1007.81 1007.50 1007.26 1007.08 1006.99 1006.96 1007.01 1007.10
1013.84 1014.36 1014.84 1015.29 1015.69 1016.05 1016.35 1016.59 1016.76 1016.86 1016.89 1016.84 1016.72 1016.54 1016.32 1016.07 1015.80 1015.52 1015.23 1014.94 1014.63 1014.31 1013.97 1013.59 1013.18 1012.74 1012.27 1011.78 1011.28 1010.76 1010.23 1009.70 1009.16 1008.62 1008.10 1007.60 1007.15 1006.76 1006.45 1006.23 1006.11 1006.09 1006.14 1006.26
1014.22 1014.84 1015.39 1015.86 1016.23 1016.51 1016.69 1016.78 1016.79 1016.74 1016.64 1016.52 1016.37 1016.21 1016.04 1015.87 1015.69 1015.48 1015.24 1014.96 1014.64 1014.27 1013.85 1013.39 1012.90 1012.40 1011.89 1011.38 1010.86 1010.34 1009.81 1009.26 1008.69 1008.11 1007.53 1006.97 1006.45 1006.00 1005.65 1005.40 1005.26 1005.24 1005.29 1005.42
1014.71 1015.36 1015.92 1016.37 1016.69 1016.88 1016.94 1016.91 1016.79 1016.62 1016.44 1016.26 1016.09 1015.95 1015.84 1015.73 1015.60 1015.44 1015.23 1014.94 1014.58 1014.15 1013.65 1013.11 1012.54 1011.98 1011.41 1010.87 1010.33 1009.80 1009.26 1008.70 1008.11 1007.50 1006.89 1006.29 1005.73 1005.25 1004.87 1004.61 1004.47 1004.44 1004.50 1004.63
1015.29 1015.89 1016.39 1016.77 1017.01 1017.11 1017.08 1016.94 1016.73 1016.49 1016.25 1016.04 1015.88 1015.76 1015.68 1015.61 1015.52 1015.38 1015.16 1014.85 1014.44 1013.94 1013.36 1012.74 1012.10 1011.46 1010.85 1010.26 1009.70 1009.15 1008.60 1008.03 1007.43 1006.81 1006.18 1005.57 1005.00 1004.52 1004.14 1003.88 1003.75 1003.73 1003.79 1003.91
1015.86 1016.35 1016.75 1017.03 1017.17 1017.17 1017.06 1016.85 1016.59 1016.31 1016.05 1015.84 1015.69 1015.59 1015.54 1015.49 1015.41 1015.27 1015.03 1014.68 1014.21 1013.64 1012.99 1012.30 1011.58 1010.88 1010.22 1009.59 1009.00 1008.43 1007.86 1007.28 1006.68 1006.06 1005.44 1004.83 1004.28 1003.81 1003.45 1003.21 1003.09 1003.08 1003.14 1003.25
1016.33 1016.67 1016.92 1017.07 1017.10 1017.02 1016.85 1016.61 1016.33 1016.05 1015.80 1015.62 1015.49 1015.41 1015.37 1015.33 1015.25 1015.09 1014.82 1014.43 1013.91 1013.28 1012.57 1011.81 1011.04 1010.29 1009.58 1008.92 1008.29 1007.70 1007.11 1006.52 1005.92 1005.30 1004.69 1004.10 1003.57 1003.12 1002.79 1002.57 1002.47 1002.46 1002.53 1002.64
1016.58 1016.75 1016.85 1016.87 1016.80 1016.66 1016.45 1016.20 1015.94 1015.70 1015.50 1015.35 1015.26 1015.21 1015.18 1015.14 1015.04 1014.85 1014.55 1014.12 1013.55 1012.88 1012.13 1011.32 1010.52 1009.73 1008.98 1008.28 1007.63 1007.01 1006.41 1005.80 1005.19 1004.58 1003.97 1003.40 1002.89 1002.47 1002.15 1001.95 1001.86 1001.86 1001.93 1002.03
1016.56 1016.57 1016.52 1016.42 1016.28 1016.10 1015.89 1015.67 1015.46 1015.28 1015.14 1015.05 1015.00 1014.98 1014.96 1014.91 1014.79 1014.58 1014.24 1013.77 1013.18 1012.48 1011.70 1010.87 1010.04 1009.23 1008.46 1007.74 1007.06 1006.41 1005.79 1005.16 1004.54 1003.92 1003.32 1002.75 1002.25 1001.84 1001.53 1001.34 1001.25 1001.25 1001.31 1001.41
1016.24 1016.11 1015.95 1015.78 1015.59 1015.41 1015.23 1015.07 1014.93 1014.83 1014.76 1014.74 1014.73 1014.74 1014.73 1014.66 1014.52 1014.28 1013.91 1013.42 1012.80 1012.09 1011.30 1010.47 1009.63 1008.81 1008.03 1007.29 1006.59 1005.92 1005.27 1004.63 1003.99 1003.36 1002.75 1002.18 1001.68 1001.26 1000.95 1000.75 1000.65 1000.64 1000.70 1000.80
1015.66 1015.44 1015.22 1015.00 1014.82 1014.66 1014.54 1014.46 1014.41 1014.40 1014.42 1014.45 1014.49 1014.51 1014.50 1014.42 1014.25 1013.97 1013.58 1013.07 1012.44 1011.73 1010.94 1010.12 1009.29 1008.48 1007.69 1006.94 1006.23 1005.54 1004.87 1004.20 1003.55 1002.90 1002.28 1001.70 1001.18 1000.75 1000.43 1000.21 1000.09 1000.07 1000.11 1000.21
1014.91 1014.64 1014.39 1014.19 1014.03 1013.94 1013.90 1013.91 1013.96 1014.04 1014.13 1014.22 1014.29 1014.32 1014.29 1014.18 1013.98 1013.68 1013.26 1012.73 1012.10 1011.39 1010.62 1009.81 1009.00 1008.20 1007.42 1006.66 1005.94 1005.24 1004.55 1003.87 1003.20 1002.55 1001.91 1001.32 1000.79 1000.35 1000.00 999.76 999.62 999.57 999.61 999.70
1014.08 1013.81 1013.57 1013.40 1013.31 1013.30 1013.36 1013.47 1013.61 1013.76 1013.92 1014.04 1014.12 1014.15 1014.10 1013.97 1013.73 1013.39 1012.95 1012.41 1011.78 1011.07 1010.32 1009.53 1008.74 1007.95 1007.17 1006.43 1005.70 1004.99 1004.30 1003.62 1002.95 1002.29 1001.66 1001.06 1000.53 1000.07 999.71 999.44 999.28 999.21 999.23 999.31
Thickness
5768 5754 5745 5750 5754 5757 5754 5749 5745 5750 5758 5746 5735 5732 5737 5744 5747 5746 5746 5745 5744 5743 5743 5742 5740 5739 5737 5735 5733 5730 5728 5724 5721 5719 5717 5713 5711 5710 5712 5713 5711 5711 5711 5711
5750 5747 5762 5768 5764 5756 5751 5746 5744 5748 5753 5741 5728 5726 5731 5735 5734 5735 5735 5734 5734 5733 5732 5731 5731 5728 5726 5725 5722 5720 5719 5716 5715 5713 5711 5708 5706 5705 5705 5705 5705 5706 5707 5707
5747 5757 5773 5769 5764 5755 5753 5749 5749 5744 5743 5737 5728 5717 5719 5724 5727 5728 5727 5726 5725 5724 5721 5720 5719 5717 5716 5714 5712 5712 5711 5710 5708 5708 5706 5704 5702 5700 5698 5697 5698 5699 5700 5702
5754 5765 5768 5765 5761 5761 5748 5762 5758 5748 5731 5717 5723 5701 5710 5712 5714 5715 5715 5716 5715 5714 5712 5710 5708 5708 5707 5705 5704 5704 5704 5703 5702 5701 5699 5696 5692 5690 5689 5690 5691 5692 5694 5695
5751 5763 5761 5758 5763 5766 5758 5760 5751 5742 5727 5713 5710 5700 5700 5706 5704 5705 5707 5708 5707 5706 5704 5701 5700 5699 5699 5698 5697 5696 5694 5694 5693 5692 5690 5687 5684 5682 5682 5683 5684 5684 5686 5688
5756 5768 5766 5765 5770 5770 5762 5749 5736 5721 5711 5698 5701 5697 5695 5698 5701 5701 5702 5702 5701 5699 5698 5695 5694 5692 5691 5690 5689 5687 5685 5683 5682 5681 5680 5678 5675 5674 5672 5672 5673 5674 5675 5677
5742 5755 5765 5769 5760 5759 5750 5727 5702 5697 5687 5690 5699 5694 5694 5704 5705 5702 5699 5697 5696 5693 5690 5687 5685 5683 5682 5680 5679 5676 5674 5672 5671 5669 5668 5666 5664 5663 5661 5660 5660 5661 5662 5663
5725 5726 5753 5762 5757 5748 5742 5727 5698 5687 5681 5685 5693 5689 5696 5706 5704 5701 5697 5693 5690 5686 5683 5680 5678 5676 5673 5671 5668 5664 5661 5659 5658 5656 5654 5653 5651 5649 5648 5647 5647 5647 5647 5649
5726 5727 5755 5760 5760 5754 5737 5720 5717 5694 5688 5679 5683 5691 5698 5700 5696 5693 5690 5686 5682 5679 5677 5674 5672 5669 5665 5661 5657 5653 5650 5647 5645 5643 5640 5638 5636 5634 5633 5633 5631 5631 5632 5633
5739 5727 5742 5751 5755 5747 5738 5720 5701 5688 5676 5671 5680 5682 5679 5687 5685 5683 5680 5677 5674 5672 5669 5666 5663 5659 5655 5650 5646 5642 5638 5634 5632 5629 5626 5625 5622 5619 5618 5616 5615 5615 5616 5616
5741 5723 5725 5733 5726 5721 5725 5714 5695 5681 5678 5668 5663 5670 5685 5681 5680 5676 5673 5670 5666 5663 5659 5655 5651 5647 5642 5637 5632 5627 5623 5619 5616 5614 5611 5608 5606 5604 5601 5599 5598 5598 5598 5598
5733 5715 5707 5718 5730 5731 5723 5711 5697 5684 5675 5666 5659 5663 5682 5677 5674 5671 5666 5663 5658 5654 5649 5644 5638 5633 5627 5622 5617 5612 5608 5603 5601 5598 5595 5592 5590 5588 5585 5584 5583 5582 5581 5581
5731 5712 5695 5698 5706 5715 5711 5706 5694 5680 5667 5659 5654 5663 5675 5671 5667 5663 5658 5653 5648 5643 5638 5632 5626 5620 5614 5609 5604 5599 5595 5591 5588 5585 5581 5578 5575 5573 5572 5571 5570 5568 5567 5567
5733 5707 5697 5690 5695 5702 5700 5698 5694 5681 5664 5661 5662 5662 5666 5661 5657 5653 5648 5643 5637 5632 5626 5620 5614 5608 5602 5597 5592 5588 5584 5580 5576 5571 5567 5564 5562 5561 5560 5559 5558 5557 5556 5556
5727 5704 5703 5702 5705 5704 5697 5692 5689 5682 5675 5663 5663 5660 5659 5655 5650 5646 5640 5634 5628 5623 5617 5610 5603 5598 5592 5588 5583 5578 5574 5569 5564 5559 5555 5552 5551 5549 5548 5547 5546 5546 5546 5547
5716 5703 5700 5696 5700 5697 5689 5688 5686 5680 5675 5668 5661 5655 5658 5652 5644 5637 5630 5624 5618 5612 5607 5601 5595 5589 5584 5579 5574 5569 5564 5560 5554 5548 5545 5542 5539 5538 5537 5536 5535 5535 5535 5536
5706 5699 5688 5682 5690 5687 5676 5681 5680 5675 5671 5663 5652 5651 5651 5644 5637 5629 5624 5618 5610 5604 5598 5592 5586 5580 5575 5569 5564 5558 5554 5549 5543 5538 5534 5531 5527 5525 5525 5525 5524 5524 5525 5525
5706 5690 5677 5675 5678 5669 5677 5689 5685 5675 5669 5663 5656 5650 5644 5637 5633 5625 5617 5609 5602 5596 5591 5585 5579 5573 5567 5561 5555 5549 5544 5538 5533 5528 5524 5520 5516 5514 5513 5511 5511 5512 5513 5515
5710 5695 5677 5667 5667 5670 5679 5684 5678 5666 5659 5661 5652 5645 5639 5634 5625 5620 5616 5608 5598 5590 5583 5577 5571 5566 5559 5553 5548 5541 5536 5530 5524 5519 5514 5510 5505 5502 5501 5500 5500 5501 5502 5505
5703 5694 5678 5667 5668 5661 5673 5684 5682 5666 5651 5657 5649 5640 5632 5622 5608 5612 5611 5601 5592 5584 5577 5572 5566 5560 5553 5548 5540 5533 5527 5520 5515 5510 5504 5499 5495 5492 5491 5491 5491 5492 5493 5496
5694 5682 5673 5666 5663 5665 5680 5682 5674 5650 5647 5654 5646 5637 5627 5614 5607 5606 5600 5592 5584 5578 5572 5567 5560 5553 5547 5541 5532 5525 5518 5512 5507 5501 5496 5490 5486 5483 5482 5482 5483 5484 5486 5488
5688 5678 5669 5658 5658 5662 5683 5675 5663 5657 5657 5651 5644 5636 5626 5616 5609 5601 5594 5587 5580 5574 5569 5563 5555 5549 5543 5534 5526 5519 5512 5507 5500 5495 5489 5485 5481 5478 5479 5477 5477 5478 5480 5483
5687 5684 5675 5670 5670 5678 5679 5676 5672 5662 5654 5649 5640 5633 5623 5613 5604 5597 5589 5582 5576 5570 5564 5559 5552 5545 5539 5531 5522 5515 5509 5502 5496 5490 5485 5481 5477 5475 5473 5472 5473 5474 5475 5478
5693 5684 5678 5675 5679 5680 5679 5676 5671 5663 5655 5648 5639 5629 5620 5609 5600 5592 5585 5579 5573 5567 5562 5556 5549 5543 5537 5529 5520 5512 5506 5499 5493 5488 5484 5479 5476 5473 5472 5470 5470 5471 5473 5476
5695 5686 5679 5676 5679 5678 5676 5671 5667 5661 5653 5644 5635 5626 5616 5606 5597 5589 5582 5576 5570 5565 5559 5552 5545 5539 5534 5527 5520 5513 5506 5499 5493 5488 5484 5480 5476 5473 5471 5470 5469 5471 5473 5475
5690 5686 5679 5677 5681 5673 5671 5670 5665 5657 5649 5640 5631 5622 5613 5603 5594 5587 5579 5573 5567 5562 5556 5550 5544 5538 5533 5526 5520 5514 5507 5500 5494 5490 5485 5481 5477 5474 5472 5470 5471 5471 5472 5475